Regional Weather Roundup
Issued by NWS

Home | Current Version | Previous Version | Text Only | Print | Product List | Glossary Off
Versions: 1 2 3 4 5 6 7 8 9 10 11 12 13 14 15 16 17 18 19 20 21 22 23 24 25 26 27 28 29 30 31 32 33 34 35 36 37 38 39 40 41 42 43 44 45 46 47 48 49 50

000
ASUS43 KLOT 290006
RWRIL

ILLINOIS REGIONAL WEATHER ROUNDUP
NATIONAL WEATHER SERVICE CHICAGO/ROMEOVILLE IL
700 PM CDT MON JUL 28 2014

NOTE: "FAIR" INDICATES FEW OR NO CLOUDS BELOW 12,000 FEET WITH NO
SIGNIFICANT WEATHER AND/OR OBSTRUCTIONS TO VISIBILITY.

* THESE STATIONS ARE NOT UNDER NWS QUALITY CONTROL. THEY ALSO MAY NOT
  REPORT WEATHER SUCH AS PRECIPITATION OR FOG.

ILZ001-002-007-009-015-016-024-290100-
NORTHWEST ILLINOIS

CITY           SKY/WX    TMP DP  RH WIND       PRES   REMARKS
MOLINE         SUNNY     72  50  45 N7        30.11F
6HR MIN TEMP:  71; 6HR MAX TEMP:  75;

STERLING*      PTSUNNY   72  52  49 NW6       30.11F
SAVANNA*       MOSUNNY   71  50  46 NW6       30.11S
$$

ILZ003-004-008-010-011-017-018-290100-
NORTH CENTRAL ILLINOIS

CITY           SKY/WX    TMP DP  RH WIND       PRES   REMARKS
ROCKFORD       MOSUNNY   71  50  47 NW9       30.10F
6HR MIN TEMP:  70; 6HR MAX TEMP:  74;

FREEPORT*      PTSUNNY   69  53  58 NW5       30.13S
ROCHELLE*      SUNNY     70  50  49 NW6       30.10F
DE KALB*       SUNNY     67  50  54 NW7       30.09F
PERU*          CLOUDY    71  51  50 NW8       30.11S
$$

ILZ005-006-012>014-019>023-290100-
NORTHEAST ILLINOIS

CITY           SKY/WX    TMP DP  RH WIND       PRES   REMARKS
CHICAGO-OHARE  MOSUNNY   69  48  47 E7        30.07S
6HR MIN TEMP:  69; 6HR MAX TEMP:  73;

CHICAGO-MIDWAY MOSUNNY   70  51  51 NE6       30.07S
6HR MIN TEMP:  69; 6HR MAX TEMP:  73;

AURORA         SUNNY     69  50  50 NW8       30.08F
6HR MIN TEMP:  69; 6HR MAX TEMP:  73;

LANSING*       MOSUNNY   64  48  56 N7        30.08S
JOLIET*        SUNNY     69  48  47 CALM      30.09S
WAUKEGAN       SUNNY     62  50  64 E6        30.06F
6HR MIN TEMP:  62; 6HR MAX TEMP:  69;

DUPAGE AIRPORT MOSUNNY   71  48  43 NW13      30.07F
6HR MIN TEMP:  69; 6HR MAX TEMP:  73;

KANKAKEE*      SUNNY     67  51  54 NW6       30.08F
WHEELING       SUNNY     66  51  58 E6        30.08F
6HR MIN TEMP:  66; 6HR MAX TEMP:  72;

MORRIS*        MOSUNNY   70  53  55 CALM      30.08F
ROMEOVILLE*    MOSUNNY   69  48  47 N5        30.07S
NORTHERLY ISL    N/A     62  50  64 N8          N/A
$$

LMZ740>746-290100-
SOUTHERN LAKE MICHIGAN

STATION/POSITION SKY/WX   TEMP    WIND        PRES    VSBY  WAVE
                          AIR SEA DIR/SP/G                  HT/PER
                          (F)     (DEG/KT/KT) (MB)    (MI)  (FT/S)
SOUTHERN BUOY              60 60  360/ 10/ 12 1017.9F         4/ 6
WAUKEGAN HARBOR            61      60/  4/  6   N/A
HARRISON CRIB              61      20/  9/ 10   N/A
BURNHAM HARBOR             62      30/  7/ 10   N/A
CALUMET HARBOR             62     360/  8/ 11 1017.5S
MICHIGAN CITY              64     350/ 26/ 30   N/A
MICHIGAN CITY 6N           64 67   20/ 17/ 23   N/A           8/ 8
ST. JOSEPH                 62 66  340/ 16/ 21   N/A           9/ 7
$$

ILZ025>027-034>036-040-047-049-050-058-095>099-290100-
WEST-CENTRAL ILLINOIS

CITY           SKY/WX    TMP DP  RH WIND       PRES   REMARKS
QUINCY         SUNNY     71  53  52 N8        30.13F
GALESBURG*     SUNNY     71  54  54 N7        30.13S
MACOMB*        SUNNY     70  53  55 N6        30.15S
JACKSONVILLE*  MOSUNNY   70  56  60 N6        30.13S
PITTSFIELD*    SUNNY     71  52  51 N7G16     30.13S
$$

ILZ028>032-037-038-041>044-048-051>054-059>061-290100-
CENTRAL ILLINOIS

CITY           SKY/WX    TMP DP  RH WIND       PRES   REMARKS
PONTIAC        CLOUDY    70  54  56 N5        30.10S
DECATUR        CLOUDY    71  52  50 N13       30.10S
PEORIA         CLOUDY    71  50  47 N5        30.12S
6HR MIN TEMP:  71; 6HR MAX TEMP:  76;

LACON*         PTSUNNY   69  50  50 N7        30.10F
LINCOLN*       CLOUDY    70  53  53 N5        30.09R
SPRINGFIELD    PTSUNNY   73  53  49 N10       30.11S
6HR MIN TEMP:  71; 6HR MAX TEMP:  75;

TAYLORVILLE    SUNNY     68  52  56 N9        30.10S
$$

ILZ033-039-045-046-055>057-062-063-290100-
EAST-CENTRAL ILLINOIS

CITY           SKY/WX    TMP DP  RH WIND       PRES   REMARKS
CHAMPAIGN      PTSUNNY   68  50  52 NE7       30.10R
DANVILLE*      SUNNY     64  50  60 N7        30.07S
RANTOUL*       SUNNY     70  45  40 NE7       30.10S
MATTOON        MOSUNNY   69  51  52 N13       30.08S
PARIS*         MOSUNNY   66  51  57 N7        30.09R
$$

ILZ079-100>102-290100-
SOUTHWEST ILLINOIS

CITY           SKY/WX    TMP DP  RH WIND       PRES   REMARKS
ALTON          PTSUNNY   72  55  56 NW8       30.11R
BELLEVILLE     MOSUNNY   73  56  55 N14       30.08S
CAHOKIA*       PTSUNNY   74  55  51 N14       30.09S
SPARTA*        SUNNY     72  57  60 N9        30.09R
$$

ILZ064>066-069>071-074>076-080>082-084>086-088>090-092>094-290100-
SOUTH-CENTRAL ILLINOIS

CITY           SKY/WX    TMP DP  RH WIND       PRES   REMARKS
CARBONDALE     PTSUNNY   75  57  53 N10G18    30.06R
6HR MIN TEMP:  75; 6HR MAX TEMP:  81;

CAIRO*         CLOUDY    79  61  53 N10       30.04S HX  80
EFFINGHAM*     PTSUNNY   71  49  45 N8        30.08S
MARION         MOSUNNY   75  59  57 N12       30.06S
MT. VERNON     PTSUNNY   72  54  53 NW5       30.08S
CENTRALIA*     CLOUDY    73  51  46 N12G17    30.08S
SALEM*         MOSUNNY  N/A N/A N/A N12G17    30.09R
METROPOLIS*    MOSUNNY   77  56  48 N6        30.03S
$$

ILZ067-068-072-073-078-083-087-091-290100-
SOUTHEAST ILLINOIS

CITY           SKY/WX    TMP DP  RH WIND       PRES   REMARKS
LAWRENCEVILLE  SUNNY     72  55  55 NW12      30.05S
FLORA*         SUNNY     71  52  50 N10       30.08R
FAIRFIELD*     SUNNY     73  57  56 N7        30.06S
HARRISBURG*    MOSUNNY   74  60  60 N10       30.06R
ROBINSON*      SUNNY     72  56  57 NW9       30.06S
CARMI*         MOSUNNY   73  61  64 NW9       30.05R
$$

ABBREVIATIONS USED IN REMARKS
   TC - TEMPERATURE IN CELSIUS
  WCI - WIND CHILL INDEX
   HX - HEAT INDEX
  VSB - VISIBILITY
$$



USA.gov is the U.S. government's official web portal to all federal, state and local government web resources and services.